Weather History for Pratt, KS

Change the Weather History Date:

Monday, September 23, 2013

  Actual Average (KP28) Record (KP28)
Temperature  
Mean Temperature 68 °F 68 °F  
Max Temperature 82 °F 81 °F 104 °F (1926)
Min Temperature 55 °F 56 °F 32 °F (1995)
Degree Days  
Heating Degree Days 0 2  
Month to date heating degree days 14  
Since 1 July heating degree days 14  
Cooling Degree Days 4 5  
Month to date cooling degree days 192  
Year to date cooling degree days 1703  
Growing Degree Days 18 (Base 50)    
Moisture  
Dew Point 45 °F    
Average Humidity 47    
Maximum Humidity 72    
Minimum Humidity 23    
Precipitation  
Precipitation 0.00 in 0.07 in 1.55 in (2010)
Month to date precipitation 1.63  
Year to date precipitation 21.98  
Snow  
Snow 0.00 in 0.00 in - ()
Month to date snowfall 0.0  
Since 1 July snowfall 0.0  
Since 1 September snowfall 0.0  
Snow Depth -    
Sea Level Pressure  
Sea Level Pressure 29.76 in    
Wind  
Wind Speed 19 mph (SSW)    
Max Wind Speed 33 mph    
Max Gust Speed 45 mph    
Visibility 9 miles    
Events      
T = Trace of Precipitation, MM = Missing Value Source: NWS Daily Summary

Daily Weather History Graph

Daily Weather History Graph

Search for Another Location

Airport:

Trip Planner

Search our weather history database for the weather conditions in past years. The results will help you decide how hot, cold, wet, or windy it might be!

Date:

Astronomy

Sep. 23, 2013 Rise Set
Actual Time 7:23 AM CDT 7:29 PM CDT
Civil Twilight 6:57 AM CDT 7:56 PM CDT
Nautical Twilight 6:27 AM CDT 8:26 PM CDT
Astronomical Twilight 5:56 AM CDT 8:57 PM CDT
Moon 10:08 PM CDT (9/23) 11:39 AM CDT (9/23)
Length of Visible Light 12h 58m
Length of Day
12h 06m
Waning Gibbous, 81% of the Moon is Illuminated
Sep 23
Waning Gibbous
Sep 26
Last Quarter
Oct 4
New
Oct 11
First Quarter
Oct 18
Full

Hourly Weather History & Observations

Time (CDT) Temp. Dew Point Humidity Pressure Visibility Wind Dir Wind Speed Gust Speed Precip Events Conditions
12:15 AM 62.6 °F 44.6 °F 52% 29.81 in 10.0 mi SSE 12.7 mph - N/A   Clear
12:35 AM 62.6 °F 44.6 °F 52% 29.81 in 10.0 mi South 15.0 mph 23.0 mph N/A   Clear
12:55 AM 62.6 °F 44.6 °F 52% 29.80 in 10.0 mi SSE 15.0 mph 19.6 mph N/A   Clear
1:15 AM 62.6 °F 44.6 °F 52% 29.80 in 10.0 mi SSE 12.7 mph - N/A   Clear
1:35 AM 62.6 °F 44.6 °F 52% 29.79 in 10.0 mi South 16.1 mph 21.9 mph N/A   Clear
1:55 AM 62.6 °F 44.6 °F 52% 29.79 in 10.0 mi SSE 16.1 mph 20.7 mph N/A   Clear
2:15 AM 60.8 °F 46.4 °F 59% 29.78 in 10.0 mi SSE 15.0 mph 21.9 mph N/A   Clear
2:35 AM 60.8 °F 46.4 °F 59% 29.78 in 10.0 mi SSE 13.8 mph - N/A   Clear
2:55 AM 60.8 °F 46.4 °F 59% 29.78 in 10.0 mi South 13.8 mph 19.6 mph N/A   Clear
3:15 AM 59.0 °F 46.4 °F 63% 29.78 in 10.0 mi South 13.8 mph 19.6 mph N/A   Clear
3:35 AM 59.0 °F 46.4 °F 63% 29.77 in 10.0 mi South 13.8 mph 18.4 mph N/A   Clear
3:55 AM 60.8 °F 46.4 °F 59% 29.76 in 10.0 mi SSE 18.4 mph 24.2 mph N/A   Clear
4:15 AM 59.0 °F 46.4 °F 63% 29.75 in 10.0 mi South 17.3 mph 24.2 mph N/A   Clear
4:35 AM 59.0 °F 46.4 °F 63% 29.76 in 10.0 mi South 15.0 mph 20.7 mph N/A   Clear
4:55 AM 57.2 °F 46.4 °F 67% 29.78 in 10.0 mi South 13.8 mph 17.3 mph N/A   Clear
5:15 AM 55.4 °F 46.4 °F 72% 29.80 in 10.0 mi SSW 12.7 mph - N/A   Clear
5:35 AM 55.4 °F 46.4 °F 72% 29.80 in 10.0 mi South 12.7 mph - N/A   Clear
5:55 AM 55.4 °F 46.4 °F 72% 29.79 in 10.0 mi South 13.8 mph - N/A   Clear
6:15 AM 55.4 °F 46.4 °F 72% 29.78 in 10.0 mi SSE 13.8 mph 20.7 mph N/A   Clear
6:35 AM 55.4 °F 46.4 °F 72% 29.77 in 10.0 mi SSE 15.0 mph - N/A   Clear
6:55 AM 55.4 °F 46.4 °F 72% 29.76 in 10.0 mi SSE 18.4 mph 24.2 mph N/A   Clear
7:15 AM 55.4 °F 46.4 °F 72% 29.77 in 10.0 mi SSE 15.0 mph 21.9 mph N/A   Clear
7:35 AM 55.4 °F 46.4 °F 72% 29.77 in 10.0 mi SSE 13.8 mph - N/A   Clear
7:55 AM 55.4 °F 46.4 °F 72% 29.77 in 10.0 mi SSE 15.0 mph 21.9 mph N/A   Clear
8:15 AM 57.2 °F 46.4 °F 67% 29.77 in 10.0 mi South 18.4 mph 23.0 mph N/A   Clear
8:35 AM 59.0 °F 46.4 °F 63% 29.77 in 10.0 mi South 17.3 mph 24.2 mph N/A   Clear
8:55 AM 60.8 °F 46.4 °F 59% 29.76 in 10.0 mi South 21.9 mph 29.9 mph N/A   Clear
9:15 AM 62.6 °F 46.4 °F 55% 29.75 in 10.0 mi South 25.3 mph 36.8 mph N/A   Clear
9:35 AM 62.6 °F 46.4 °F 55% 29.75 in 10.0 mi South 27.6 mph 39.1 mph N/A   Clear
9:55 AM 64.4 °F 46.4 °F 52% 29.76 in 10.0 mi South 26.5 mph 39.1 mph N/A   Scattered Clouds
10:15 AM 64.4 °F 46.4 °F 52% 29.75 in 10.0 mi South 23.0 mph 34.5 mph N/A   Scattered Clouds
10:35 AM 66.2 °F 46.4 °F 49% 29.76 in 10.0 mi South 23.0 mph 31.1 mph N/A   Mostly Cloudy
10:55 AM 66.2 °F 46.4 °F 49% 29.75 in 10.0 mi South 23.0 mph 35.7 mph N/A   Mostly Cloudy
11:15 AM 68.0 °F 44.6 °F 43% 29.75 in 10.0 mi South 27.6 mph 33.4 mph N/A   Mostly Cloudy
11:35 AM 68.0 °F 46.4 °F 46% 29.76 in 10.0 mi South 25.3 mph 32.2 mph N/A   Overcast
11:55 AM 68.0 °F 46.4 °F 46% 29.75 in 10.0 mi South 25.3 mph 38.0 mph N/A   Mostly Cloudy
12:15 PM 68.0 °F 46.4 °F 46% 29.74 in 10.0 mi South 23.0 mph 33.4 mph N/A   Scattered Clouds
12:35 PM 71.6 °F 46.4 °F 41% 29.74 in 10.0 mi South 26.5 mph 39.1 mph N/A   Scattered Clouds
12:55 PM 71.6 °F 46.4 °F 41% 29.74 in 10.0 mi South 29.9 mph 38.0 mph N/A   Clear
1:15 PM 73.4 °F 44.6 °F 36% 29.73 in 10.0 mi South 28.8 mph 36.8 mph N/A   Clear
1:35 PM 73.4 °F 44.6 °F 36% 29.72 in 10.0 mi South 33.4 mph 42.6 mph N/A   Clear
1:55 PM 77.0 °F 44.6 °F 32% 29.71 in 10.0 mi South 25.3 mph 40.3 mph N/A   Clear
2:15 PM 78.8 °F 44.6 °F 30% 29.70 in 10.0 mi South 27.6 mph 34.5 mph N/A   Clear
2:35 PM 78.8 °F 44.6 °F 30% 29.69 in 10.0 mi South 28.8 mph 43.7 mph N/A   Clear
2:55 PM 78.8 °F 44.6 °F 30% 29.69 in 10.0 mi South 27.6 mph 36.8 mph N/A   Clear
3:15 PM 80.6 °F 44.6 °F 28% 29.69 in 10.0 mi South 27.6 mph 39.1 mph N/A   Clear
3:35 PM 80.6 °F 42.8 °F 26% 29.68 in 10.0 mi South 28.8 mph 39.1 mph N/A   Clear
3:55 PM 82.4 °F 42.8 °F 25% 29.69 in 10.0 mi South 29.9 mph 39.1 mph N/A   Clear
4:15 PM 82.4 °F 44.6 °F 26% 29.68 in 10.0 mi South 32.2 mph 38.0 mph N/A   Scattered Clouds
4:35 PM 82.4 °F 41.0 °F 23% 29.69 in 7.0 mi WSW 28.8 mph 44.9 mph N/A   Scattered Clouds
4:55 PM 78.8 °F 42.8 °F 28% 29.71 in 7.0 mi WSW 21.9 mph 35.7 mph N/A   Scattered Clouds
5:15 PM 80.6 °F 42.8 °F 26% 29.71 in 7.0 mi West 31.1 mph 38.0 mph N/A   Scattered Clouds
5:35 PM 78.8 °F 42.8 °F 28% 29.72 in 5.0 mi WSW 25.3 mph 31.1 mph N/A   Haze
5:55 PM 78.8 °F 42.8 °F 28% 29.72 in 4.0 mi WSW 24.2 mph 34.5 mph N/A   Haze
6:15 PM 78.8 °F 42.8 °F 28% 29.74 in 3.0 mi WSW 33.4 mph 42.6 mph N/A   Haze
6:35 PM 77.0 °F 42.8 °F 29% 29.74 in 2.5 mi WSW 33.4 mph 40.3 mph N/A   Haze
6:55 PM 77.0 °F 42.8 °F 29% 29.75 in 2.5 mi West 26.5 mph 39.1 mph N/A   Haze
7:15 PM 75.2 °F 42.8 °F 31% 29.76 in 2.0 mi West 25.3 mph 33.4 mph N/A   Haze
7:35 PM 73.4 °F 42.8 °F 33% 29.76 in 3.0 mi West 25.3 mph 29.9 mph N/A   Haze
7:55 PM 73.4 °F 42.8 °F 33% 29.77 in 4.0 mi West 18.4 mph 27.6 mph N/A   Haze
8:15 PM 71.6 °F 42.8 °F 35% 29.78 in 4.0 mi West 12.7 mph 19.6 mph N/A   Haze
8:35 PM 71.6 °F 42.8 °F 35% 29.78 in 4.0 mi West 20.7 mph 28.8 mph N/A   Haze
8:55 PM 71.6 °F 41.0 °F 33% 29.79 in 4.0 mi West 20.7 mph 25.3 mph N/A   Haze
9:15 PM 71.6 °F 42.8 °F 35% 29.80 in 4.0 mi West 24.2 mph 31.1 mph N/A   Haze
9:35 PM 69.8 °F 44.6 °F 40% 29.81 in 5.0 mi West 21.9 mph 32.2 mph N/A   Haze
9:55 PM 69.8 °F 44.6 °F 40% 29.82 in 7.0 mi West 20.7 mph 31.1 mph N/A   Scattered Clouds
10:15 PM 68.0 °F 44.6 °F 43% 29.83 in 10.0 mi WNW 18.4 mph 27.6 mph N/A   Clear
10:35 PM 66.2 °F 46.4 °F 49% 29.84 in 10.0 mi WNW 20.7 mph 28.8 mph N/A   Clear
10:55 PM 66.2 °F 46.4 °F 49% 29.85 in 10.0 mi West 13.8 mph 20.7 mph N/A   Clear
11:15 PM 64.4 °F 46.4 °F 52% 29.86 in 10.0 mi WNW 19.6 mph 25.3 mph N/A   Clear
11:35 PM 64.4 °F 46.4 °F 52% 29.86 in 10.0 mi WNW 17.3 mph - N/A   Clear
11:55 PM 62.6 °F 46.4 °F 55% 29.87 in 10.0 mi WNW 16.1 mph 24.2 mph N/A   Clear